Regional Weather Roundup
Issued by NWS

Home | Current Version | Previous Version | Graphics & Text | Print | Product List | Glossary On
Versions: 1 2 3 4 5 6 7 8 9 10 11 12 13 14 15 16 17 18 19 20 21 22 23 24 25 26 27 28 29 30 31 32 33 34 35 36 37 38 39 40 41 42 43 44 45 46 47 48 49 50
000
ASUS43 KLOT 192003
RWRIL

ILLINOIS REGIONAL WEATHER ROUNDUP
NATIONAL WEATHER SERVICE CHICAGO/ROMEOVILLE IL
300 PM CDT THU APR 19 2018

NOTE: "FAIR" INDICATES FEW OR NO CLOUDS BELOW 12,000 FEET WITH NO
SIGNIFICANT WEATHER AND/OR OBSTRUCTIONS TO VISIBILITY.

* THESE STATIONS ARE NOT UNDER NWS QUALITY CONTROL. THEY ALSO MAY NOT
  REPORT WEATHER SUCH AS PRECIPITATION OR FOG.

ILZ001-002-007-009-015-016-024-192100-
NORTHWEST ILLINOIS

CITY           SKY/WX    TMP DP  RH WIND       PRES   REMARKS
MOLINE         FAIR      54  28  36 N12G18    30.43S
STERLING*      FAIR      53  30  41 NW9       30.43R
SAVANNA*       FAIR      51  26  38 NW10      30.44S
$$

ILZ003-004-008-010-011-017-018-192100-
NORTH CENTRAL ILLINOIS

CITY           SKY/WX    TMP DP  RH WIND       PRES   REMARKS
ROCKFORD       FAIR      52  23  32 NW12      30.42R
FREEPORT*      FAIR      50  29  44 NW9G17    30.43S
ROCHELLE*      FAIR      49  33  52 NW12      30.41S
DE KALB*       FAIR      51  30  44 N9G16     30.39S
PERU*          FAIR      53  30  40 N10G17    30.41S
$$

ILZ005-006-012>014-019>023-192100-
NORTHEAST ILLINOIS

CITY           SKY/WX    TMP DP  RH WIND       PRES   REMARKS
CHICAGO-OHARE  FAIR      53  26  35 N13       30.36R
CHICAGO-MIDWAY FAIR      52  26  36 NE14      30.37R
AURORA         FAIR      51  29  42 N14       30.39R
LANSING*       FAIR      47  28  48 N14G20    30.38S
JOLIET*        FAIR      53  29  39 NW10      30.38R
WAUKEGAN       FAIR      48  24  39 VRB3      30.37R
DUPAGE AIRPORT FAIR      53  26  35 NW14      30.37R
KANKAKEE*      FAIR      53  28  37 N12       30.37S
WHEELING       FAIR      51  26  37 N8        30.39R
MORRIS*        FAIR      52  33  47 NW9       30.38S
ROMEOVILLE*    FAIR      53  28  39 N10       30.37S
NORTHERLY ISL    N/A     45  25  45 NW14        N/A
$$

LMZ740>746-192100-
SOUTHERN LAKE MICHIGAN

STATION/POSITION SKY/WX   TEMP    WIND        PRES    VSBY  WAVE
                          AIR SEA DIR/SP/G                  HT/PER
                          (F)     (DEG/KT/KT) (MB)    (MI)  (FT/S)
HARRISON CRIB              40     360/ 14/ 16   N/A
BURNHAM HARBOR             44      10/ 13/ 17   N/A
CALUMET HARBOR             42      20/ 10/ 16 1028.1R
BURNS HARBOR               38     340/ 11/ 14 1029.1R
MICHIGAN CITY              38     290/ 12/ 14   N/A
$$

ILZ025>027-034>036-040-047-049-050-058-095>099-192100-
WEST-CENTRAL ILLINOIS

CITY           SKY/WX    TMP DP  RH WIND       PRES   REMARKS
QUINCY         SUNNY     55  31  39 MISG      30.42S
GALESBURG*     FAIR      57  29  34 NE7G16    30.43F
MACOMB*        SUNNY     53  26  35 N8        30.44F
JACKSONVILLE*  SUNNY     54  29  39 N9        30.41F
PITTSFIELD*    SUNNY     55  33  42 N8        30.43S
$$

ILZ028>032-037-038-041>044-048-051>054-059>061-192100-
CENTRAL ILLINOIS

CITY           SKY/WX    TMP DP  RH WIND       PRES   REMARKS
PONTIAC        FAIR      52  28  40 N14       30.40S
BLOOMINGTON    FAIR      53  27  36 NW10G23   30.39S
DECATUR        FAIR      55  29  36 N14G20    30.38F
PEORIA         FAIR      54  26  34 N8        30.41F
LACON*         FAIR      53  26  35 N7        30.41S
LINCOLN*       FAIR      55  32  40 N7        30.40F
SPRINGFIELD    FAIR      57  28  33 N12G23    30.41S
TAYLORVILLE    FAIR      53  30  41 N6G20     30.40S
$$

ILZ033-039-045-046-055>057-062-063-192100-
EAST-CENTRAL ILLINOIS

CITY           SKY/WX    TMP DP  RH WIND       PRES   REMARKS
CHAMPAIGN      FAIR      55  28  35 NW10G22   30.37R
DANVILLE*      FAIR      54  30  39 N14       30.33S
RANTOUL*       FAIR      55  32  40 N9        30.37S
MATTOON        FAIR      53  30  41 N10       30.36S
PARIS*         FAIR      54  34  47 N9        30.36S
$$

ILZ079-100>102-192100-
SOUTHWEST ILLINOIS

CITY           SKY/WX    TMP DP  RH WIND       PRES   REMARKS
ALTON          PTSUNNY   54  34  47 NW7       30.41F
BELLEVILLE     MOSUNNY   54  33  46 N13       30.40F
CAHOKIA*       MOSUNNY   52  32  46 N8        30.42F
SPARTA*        PTSUNNY   49  37  62 N10G17    30.42S
$$

ILZ064>066-069>071-074>076-080>082-084>086-088>090-092>094-192100-
SOUTH-CENTRAL ILLINOIS

CITY           SKY/WX    TMP DP  RH WIND       PRES   REMARKS
CARBONDALE     PTSUNNY   50  33  52 N12G22    30.39S
CAIRO*         CLOUDY    50  33  50 N12G18    30.38S
EFFINGHAM*     PTSUNNY   54  36  51 N8        30.39F
MARION         PTSUNNY   50  32  50 N13       30.40S
MT. VERNON     PTSUNNY   52  33  48 N13G18    30.39S
CENTRALIA*     PTSUNNY   53  36  54 N12G17    30.38F
SALEM*         PTSUNNY   53  33  47 N12G17    30.39F
METROPOLIS*    CLOUDY    49  32  52 NW9G17    30.38S
$$

ILZ067-068-072-073-078-083-087-091-192100-
SOUTHEAST ILLINOIS

CITY           SKY/WX    TMP DP  RH WIND       PRES   REMARKS
LAWRENCEVILLE  FAIR      55  32  41 N7G18     30.36S
FLORA*         FAIR      53  36  51 N13G20    30.38F
FAIRFIELD*     PTSUNNY   51  34  53 N8        30.38S
HARRISBURG*    PTSUNNY   50  35  56 N15G21    30.39F
ROBINSON*      FAIR      52  33  48 N10G17    30.37S
CARMI*         PTSUNNY   50  35  56 NW10G17   30.37S
$$

ABBREVIATIONS USED IN REMARKS
   TC - TEMPERATURE IN CELSIUS
  WCI - WIND CHILL INDEX
   HX - HEAT INDEX
  VSB - VISIBILITY
$$





USA.gov is the U.S. government's official web portal to all federal, state and local government web resources and services.